GW0877 Weather Reports


time (UTC)temp
C
wind
direction
speed
KPH
gust
KPH
rain 1hr
cm
rain 24hr
cm
rain mn
cm
humidity
%
barometer
mb
20260506081015 13 185 0.0 3.2 0.00 0.00 0.00 85 1016.2
20260506080516 13 0 0.0 4.8 0.00 0.00 0.00 84 1016.1
20260506073515 13 0 0.0 3.2 0.00 0.00 0.00 83 1015.9
20260506073043 13 0 0.0 0.0 0.00 0.00 0.00 83 1015.9
20260506072515 13 0 0.0 3.2 0.00 0.00 0.00 83 1015.8
20260506072014 13 0 0.0 3.2 0.00 0.00 0.00 83 1015.8
20260506071531 13 195 0.0 1.6 0.00 0.00 0.00 83 1015.7
20260506071018 13 0 0.0 0.0 0.00 0.00 0.00 82 1015.6
20260506070515 13 0 0.0 1.6 0.00 0.00 0.00 82 1015.6
20260506062516 14 0 0.0 3.2 0.00 0.00 0.00 80 1015.1
20260506062017 14 195 0.0 3.2 0.00 0.00 0.00 80 1015.1
20260506061534 14 0 0.0 3.2 0.00 0.00 0.00 80 1015.0
20260506061018 14 0 0.0 0.0 0.00 0.00 0.00 79 1015.2
20260506060518 14 0 0.0 1.6 0.00 0.00 0.00 79 1015.1
20260506051018 15 0 0.0 1.6 0.00 0.00 0.00 78 1014.6
20260506050517 15 0 0.0 1.6 0.00 0.00 0.00 77 1014.7
20260506045017 15 0 0.0 1.6 0.00 0.00 0.00 76 1014.5
20260506044615 15 0 0.0 1.6 0.00 0.00 0.00 76 1014.5
20260506044017 15 0 0.0 1.6 0.00 0.00 0.00 76 1014.2
20260506043517 15 0 0.0 0.0 0.00 0.00 0.00 76 1014.2
20260506043032 16 0 0.0 0.0 0.00 0.00 0.00 76 1014.3
20260506042517 16 0 0.0 1.6 0.00 0.00 0.00 75 1014.2
20260506042021 16 0 0.0 1.6 0.00 0.00 0.00 75 1014.2
20260506041536 16 0 0.0 1.6 0.00 0.00 0.00 75 1014.1
20260506041021 16 0 0.0 0.0 0.00 0.00 0.00 75 1014.1
20260506040517 16 0 0.0 0.0 0.00 0.00 0.00 75 1014.0
20260506040036 16 0 0.0 0.0 0.00 0.00 0.00 75 1014.0
20260506035517 16 0 0.0 1.6 0.00 0.00 0.00 75 1014.0
20260506035017 16 0 0.0 1.6 0.00 0.00 0.00 74 1013.9
20260506034600 16 0 0.0 0.0 0.00 0.00 0.00 74 1013.9
20260506034016 16 0 0.0 0.0 0.00 0.00 0.00 73 1013.8
20260506033516 17 0 0.0 0.0 0.00 0.00 0.00 73 1013.8
20260506033036 17 0 0.0 0.0 0.00 0.00 0.00 72 1013.8
20260506032517 17 0 0.0 0.0 0.00 0.00 0.00 71 1013.7
20260506032019 17 0 0.0 0.0 0.00 0.00 0.00 71 1013.6
20260506031534 17 0 0.0 0.0 0.00 0.00 0.00 71 1013.6
20260506031015 17 0 0.0 0.0 0.00 0.00 0.00 71 1013.7
20260506030515 17 0 0.0 0.0 0.00 0.00 0.00 70 1013.6
20260506030033 17 0 0.0 1.6 0.00 0.00 0.00 70 1013.5
20260506025516 17 0 0.0 1.6 0.00 0.00 0.00 70 1013.6
20260506025015 17 0 0.0 0.0 0.00 0.00 0.00 69 1013.6
20260506024532 17 0 0.0 0.0 0.00 0.00 0.00 69 1013.5
20260506024015 17 0 0.0 1.6 0.00 0.00 0.00 68 1013.4
20260506023516 18 0 0.0 1.6 0.00 0.00 0.00 68 1013.5
20260506023029 18 0 0.0 1.6 0.00 0.00 0.00 68 1013.5
20260506022514 18 0 0.0 0.0 0.00 0.00 0.00 67 1013.5
20260506022012 18 0 0.0 1.6 0.00 0.00 0.00 68 1013.5
20260506021533 18 0 0.0 1.6 0.00 0.00 0.00 67 1013.5
20260506021015 18 0 0.0 1.6 0.00 0.00 0.00 67 1013.5
20260506020514 18 0 0.0 3.2 0.00 0.00 0.00 67 1013.4
20260506020032 18 0 0.0 3.2 0.00 0.00 0.00 67 1013.4
20260506015519 18 0 0.0 1.6 0.00 0.00 0.00 66 1013.3
20260506015016 18 0 0.0 1.6 0.00 0.00 0.00 66 1013.4
20260506014531 18 0 0.0 1.6 0.00 0.00 0.00 66 1013.3
20260506014015 18 0 0.0 3.2 0.00 0.00 0.00 65 1013.3
20260506013515 18 0 0.0 4.8 0.00 0.00 0.00 65 1013.4
20260506013033 18 0 1.6 4.8 0.00 0.00 0.00 65 1013.3
20260506012515 18 0 0.0 0.0 0.00 0.00 0.00 65 1013.3
20260506012014 18 0 0.0 3.2 0.00 0.00 0.00 64 1013.3
20260506011532 18 0 0.0 3.2 0.00 0.00 0.00 64 1013.4
20260506011018 18 294 0.0 3.2 0.00 0.00 0.00 64 1013.3
20260506010515 18 294 0.0 3.2 0.00 0.00 0.00 63 1013.4
20260506010032 19 0 0.0 4.8 0.00 0.00 0.00 63 1013.4
20260506005515 19 294 0.0 4.8 0.00 0.00 0.00 63 1013.4
20260506005014 19 0 0.0 4.8 0.00 0.00 0.00 62 1013.4
20260506004546 19 80 0.0 3.2 0.00 0.00 0.00 62 1013.5
20260506004015 19 0 0.0 3.2 0.00 0.00 0.00 62 1013.5
20260506003516 19 0 0.0 1.6 0.00 0.00 0.00 63 1013.4
20260506003043 20 0 0.0 3.2 0.00 0.00 0.00 62 1013.5
20260506002514 20 0 0.0 3.2 0.00 0.00 0.00 61 1013.5
20260506002012 20 335 0.0 3.2 0.00 0.00 0.00 61 1013.5
20260506001535 20 0 0.0 1.6 0.00 0.00 0.00 61 1013.6
20260506001015 20 0 0.0 1.6 0.00 0.00 0.00 61 1013.7
20260506000519 20 0 0.0 3.2 0.00 0.00 0.00 60 1013.7
20260506000032 20 0 0.0 3.2 0.00 0.00 0.00 60 1013.6
20260505235517 20 345 0.0 3.2 0.00 0.00 0.00 59 1013.7
20260505235017 20 0 0.0 1.6 0.00 0.00 0.00 59 1013.8
20260505234554 20 0 0.0 3.2 0.00 0.00 0.00 59 1013.8
20260505234022 20 0 0.0 3.2 0.00 0.00 0.00 58 1013.8
20260505233520 20 324 0.0 3.2 0.00 0.00 0.00 57 1013.9
20260505233038 20 0 0.0 1.6 0.00 0.00 0.00 58 1013.8
20260505232517 20 0 0.0 3.2 0.00 0.00 0.00 57 1013.9
20260505232017 20 0 0.0 3.2 0.00 0.00 0.00 57 1014.0
20260505231535 20 0 0.0 3.2 0.00 0.00 0.00 58 1014.1
20260505231016 20 0 0.0 3.2 0.00 0.00 0.00 57 1014.1
20260505230516 20 352 0.0 3.2 0.00 0.00 0.00 58 1014.1
20260505230041 20 0 0.0 4.8 0.00 0.00 0.00 58 1014.2
20260505225521 20 0 0.0 4.8 0.00 0.00 0.00 58 1014.2
20260505225019 20 0 0.0 3.2 0.00 0.00 0.00 56 1014.2
20260505224539 20 0 0.0 3.2 0.00 0.00 0.00 57 1014.3
20260505224017 20 0 0.0 3.2 0.00 0.00 0.00 56 1014.3
20260505223517 21 250 0.0 6.4 0.00 0.00 0.00 57 1014.4
20260505223042 21 244 0.0 6.4 0.00 0.00 0.00 57 1014.4
20260505222520 21 266 1.6 6.4 0.00 0.00 0.00 56 1014.5
20260505222019 21 338 0.0 6.4 0.00 0.00 0.00 56 1014.4
20260505221532 21 272 0.0 4.8 0.00 0.00 0.00 56 1014.4
20260505221016 21 0 0.0 4.8 0.00 0.00 0.00 55 1014.5
20260505220518 21 0 0.0 4.8 0.00 0.00 0.00 56 1014.5
20260505220051 21 275 1.6 4.8 0.00 0.00 0.00 54 1014.6
20260505215518 21 302 1.6 4.8 0.00 0.00 0.00 56 1014.5
20260505215017 20 0 0.0 4.8 0.00 0.00 0.00 55 1014.6
20260505214539 20 302 0.0 3.2 0.00 0.00 0.00 56 1014.7
20260505214018 20 301 0.0 4.8 0.00 0.00 0.00 57 1014.6
20260505213518 20 281 0.0 4.8 0.00 0.00 0.00 57 1014.7
20260505213031 20 297 0.0 3.2 0.00 0.00 0.00 57 1014.8
20260505212519 20 0 0.0 3.2 0.00 0.00 0.00 58 1014.8
20260505212018 20 0 0.0 4.8 0.00 0.00 0.00 58 1014.9
20260505211545 20 278 0.0 4.8 0.00 0.00 0.00 58 1015.0
20260505211017 20 286 0.0 6.4 0.00 0.00 0.00 59 1015.0
20260505210538 20 286 0.0 6.4 0.00 0.00 0.00 58 1015.1
20260505210034 20 0 1.6 6.4 0.00 0.00 0.00 60 1015.1
20260505205517 20 0 0.0 8.0 0.00 0.00 0.00 59 1015.2
20260505205017 20 251 1.6 11.3 0.00 0.00 0.00 61 1015.1
20260505204536 20 267 1.6 11.3 0.00 0.00 0.00 60 1015.2
20260505204016 20 247 0.0 4.8 0.00 0.00 0.00 60 1015.3
20260505203517 20 0 0.0 11.3 0.00 0.00 0.00 59 1015.2
20260505203036 20 283 1.6 11.3 0.00 0.00 0.00 58 1015.3
20260505202519 20 247 0.0 9.7 0.00 0.00 0.00 60 1015.2
20260505202018 20 262 1.6 9.7 0.00 0.00 0.00 59 1015.4
20260505201534 21 0 1.6 4.8 0.00 0.00 0.00 58 1015.2
20260505201017 21 243 0.0 12.9 0.00 0.00 0.00 58 1015.2
20260505200518 20 309 0.0 12.9 0.00 0.00 0.00 58 1015.3
20260505200038 20 247 3.2 11.3 0.00 0.00 0.00 60 1015.2
20260505195517 20 247 3.2 8.0 0.00 0.00 0.00 59 1015.4
20260505195017 20 262 1.6 11.3 0.00 0.00 0.00 59 1015.4
20260505194541 20 248 0.0 11.3 0.00 0.00 0.00 61 1015.4
20260505194017 20 261 1.6 11.3 0.00 0.00 0.00 61 1015.4
20260505193516 20 237 3.2 11.3 0.00 0.00 0.00 62 1015.3
20260505193042 20 252 1.6 11.3 0.00 0.00 0.00 61 1015.3
20260505192517 20 284 1.6 6.4 0.00 0.00 0.00 59 1015.4
20260505192017 20 198 1.6 6.4 0.00 0.00 0.00 60 1015.4
20260505191549 20 269 1.6 4.8 0.00 0.00 0.00 60 1015.6
20260505191022 20 279 1.6 4.8 0.00 0.00 0.00 60 1015.4
20260505190518 20 295 1.6 9.7 0.00 0.00 0.00 59 1015.4
20260505190034 20 259 0.0 9.7 0.00 0.00 0.00 60 1015.4
20260505185515 20 0 3.2 9.7 0.00 0.00 0.00 61 1015.4
20260505185017 20 235 1.6 11.3 0.00 0.00 0.00 64 1015.4
20260505184534 19 250 4.8 11.3 0.00 0.00 0.00 64 1015.4
20260505184018 19 257 0.0 6.4 0.00 0.00 0.00 63 1015.4
20260505183517 19 285 1.6 11.3 0.00 0.00 0.00 64 1015.4
20260505183032 19 0 1.6 11.3 0.00 0.00 0.00 65 1015.5
20260505182517 19 249 4.8 11.3 0.00 0.00 0.00 63 1015.4
20260505182018 19 226 0.0 8.0 0.00 0.00 0.00 64 1015.4
20260505181535 19 259 1.6 8.0 0.00 0.00 0.00 66 1015.3
20260505181017 18 293 0.0 4.8 0.00 0.00 0.00 66 1015.3
20260505180519 18 257 0.0 14.5 0.00 0.00 0.00 65 1015.3
20260505180047 18 248 1.6 14.5 0.00 0.00 0.00 67 1015.4
20260505175518 18 263 0.0 3.2 0.00 0.00 0.00 65 1015.3
20260505175018 19 261 0.0 11.3 0.00 0.00 0.00 65 1015.3
20260505174555 19 254 3.2 11.3 0.00 0.00 0.00 65 1015.3
20260505174018 19 254 0.0 9.7 0.00 0.00 0.00 66 1015.3
20260505173518 19 242 1.6 9.7 0.00 0.00 0.00 65 1015.2
20260505173031 19 0 0.0 12.9 0.00 0.00 0.00 66 1015.3
20260505172517 19 0 3.2 12.9 0.00 0.00 0.00 66 1015.4
20260505172017 19 271 3.2 12.9 0.00 0.00 0.00 66 1015.3
20260505171535 19 259 1.6 11.3 0.00 0.00 0.00 66 1015.4
20260505171017 19 223 3.2 11.3 0.00 0.00 0.00 65 1015.2
20260505170517 19 248 0.0 8.0 0.00 0.00 0.00 66 1015.4
20260505170033 19 227 1.6 8.0 0.00 0.00 0.00 65 1015.3
20260505165521 19 225 1.6 6.4 0.00 0.00 0.00 65 1015.3
20260505165017 19 252 0.0 11.3 0.00 0.00 0.00 66 1015.3
20260505164534 18 248 3.2 11.3 0.00 0.00 0.00 66 1015.2
20260505164017 18 230 1.6 6.4 0.00 0.00 0.00 67 1015.1
20260505163517 19 0 0.0 4.8 0.00 0.00 0.00 66 1015.1
20260505163039 19 0 0.0 4.8 0.00 0.00 0.00 66 1015.2
20260505162517 19 286 0.0 4.8 0.00 0.00 0.00 68 1015.1
20260505162016 18 254 0.0 9.7 0.00 0.00 0.00 67 1015.2
20260505161532 18 248 0.0 12.9 0.00 0.00 0.00 68 1015.1
20260505161017 18 252 1.6 12.9 0.00 0.00 0.00 68 1015.0
20260505160517 18 0 1.6 8.0 0.00 0.00 0.00 68 1015.0
20260505153047 20 290 0.0 3.2 0.00 0.00 0.00 67 1014.9
20260505152520 20 290 0.0 3.2 0.00 0.00 0.00 66 1014.8
20260505152016 19 0 0.0 3.2 0.00 0.00 0.00 67 1014.8
20260505151544 19 0 0.0 3.2 0.00 0.00 0.00 68 1014.7
20260505151017 19 257 0.0 3.2 0.00 0.00 0.00 69 1014.6
20260505150517 19 0 0.0 6.4 0.00 0.00 0.00 68 1014.5
20260505140515 16 0 0.0 0.0 0.00 0.00 0.00 75 1014.0
20260505125015 13 0 0.0 0.0 0.00 0.00 0.00 77 1013.0
20260505124535 14 0 0.0 0.0 0.00 0.00 0.00 77 1013.1
20260505124016 14 0 0.0 0.0 0.00 0.00 0.00 77 1012.9
20260505123516 14 0 0.0 0.0 0.00 0.00 0.00 77 1013.0
20260505123053 14 0 0.0 0.0 0.00 0.00 0.00 77 1012.9
20260505122515 14 0 0.0 0.0 0.00 0.00 0.00 77 1012.8
20260505122015 14 0 0.0 0.0 0.00 0.00 0.00 76 1012.7
20260505121530 14 0 0.0 0.0 0.00 0.00 0.00 76 1012.7
20260505121013 14 0 0.0 0.0 0.00 0.00 0.00 77 1012.5
20260505120516 14 0 0.0 0.0 0.00 0.00 0.00 76 1012.4
20260505120032 14 0 0.0 0.0 0.00 0.00 0.00 75 1012.4
20260505115516 14 0 0.0 0.0 0.00 0.00 0.00 75 1012.4
20260505115017 14 0 0.0 0.0 0.00 0.00 0.00 74 1012.3
20260505114543 14 0 0.0 0.0 0.00 0.00 0.00 74 1012.3
20260505114018 14 0 0.0 3.2 0.00 0.00 0.00 74 1012.3
20260505113517 14 0 0.0 4.8 0.00 0.00 0.00 73 1012.2
20260505113037 14 25 1.6 4.8 0.00 0.00 0.00 73 1012.3
20260505112517 14 25 1.6 4.8 0.00 0.00 0.00 74 1012.3
20260505112020 14 0 0.0 4.8 0.00 0.00 0.00 74 1012.2
20260505111552 14 25 3.2 4.8 0.00 0.00 0.00 74 1012.2
20260505111017 14 25 0.0 4.8 0.00 0.00 0.00 74 1012.1
20260505110517 15 24 0.0 3.2 0.00 0.00 0.00 73 1012.0
20260505102020 15 24 1.6 3.2 0.00 0.00 0.00 73 1011.4
20260505101536 15 24 1.6 3.2 0.00 0.00 0.00 73 1011.2
20260505101019 15 24 0.0 4.8 0.00 0.00 0.00 73 1011.4
20260505100517 15 24 1.6 4.8 0.00 0.00 0.00 73 1011.3
20260505100036 15 24 1.6 4.8 0.00 0.00 0.00 73 1011.2
20260505095517 15 0 0.0 3.2 0.00 0.00 0.00 74 1011.3
20260505095016 15 0 0.0 4.8 0.00 0.00 0.00 74 1011.2
20260505094538 15 0 0.0 4.8 0.00 0.00 0.00 75 1011.3
20260505094019 15 23 0.0 3.2 0.00 0.00 0.00 74 1011.2
20260505093516 15 0 0.0 3.2 0.00 0.00 0.00 74 1011.0
20260505093031 15 0 0.0 3.2 0.00 0.00 0.00 75 1011.0
20260505092517 15 23 0.0 1.6 0.00 0.00 0.00 74 1011.0
20260505092018 16 0 0.0 0.0 0.00 0.00 0.00 73 1011.0
20260505091536 16 0 0.0 0.0 0.00 0.00 0.00 72 1011.0
20260505091016 16 0 0.0 0.0 0.00 0.00 0.00 72 1011.0
20260505090518 16 0 0.0 0.0 0.00 0.00 0.00 71 1011.0
20260505090042 16 0 0.0 0.0 0.00 0.00 0.00 71 1010.9
20260505085517 16 0 0.0 0.0 0.00 0.00 0.00 71 1010.9
20260505085018 16 0 0.0 3.2 0.00 0.00 0.00 69 1010.7
20260505084536 16 0 0.0 3.2 0.00 0.00 0.00 68 1010.7
20260505084017 16 0 1.6 4.8 0.00 0.00 0.00 68 1010.8
20260505083516 16 23 0.0 4.8 0.00 0.00 0.00 67 1010.8
20260505083040 16 0 0.0 1.6 0.00 0.00 0.00 67 1010.7
20260505082513 16 0 0.0 0.0 0.00 0.00 0.00 67 1010.7
20260505082014 16 0 0.0 1.6 0.00 0.00 0.00 66 1010.7
20260505081540 16 0 0.0 3.2 0.00 0.00 0.00 66 1010.5